Regional Weather Roundup
Issued by NWS Austin/San Antonio, TX

Home | Current Version | Previous Version | Text Only | Print | Product List | Glossary On
Versions: 1 2 3 4 5 6 7 8 9 10 11 12 13 14 15 16 17 18 19 20 21 22 23 24 25 26 27 28 29 30 31 32 33 34 35 36 37 38 39 40 41 42 43 44 45 46 47 48 49 50
687
ASUS44 KEWX 212102
RWREWX
SOUTH TEXAS REGIONAL WEATHER ROUNDUP
NATIONAL WEATHER SERVICE AUSTIN/SAN ANTONIO TX
400 PM CDT MON OCT 21 2019

NOTE: "FAIR" INDICATED FEW OR NO CLOUDS BELOW 12,000 FEET WITH NO
SIGNIFICANT WEATHER AND/OR OBSTRUCTIONS TO VISIBILITY.

* - THESE STATIONS ARE NOT NWS OR FAA STATIONS...AND ARE NOT SUBJECT
    TO NWS AND FAA QUALITY CONTROL.

TXZ171-172-183>190-212200-
TEXAS HILL COUNTRY AND EDWARDS PLATEAU

CITY           SKY/WX    TMP DP  RH WIND       PRES   REMARKS
JUNCTION       SUNNY     78  33  19 VRB5      29.93F
*LLANO         SUNNY     77  28  16 NE3       29.95F
BURNET         SUNNY     74  30  19 VRB6      29.93F
*HORSESHOE BAY SUNNY     77  34  20 N3        29.91F
*KERRVILLE     SUNNY     79  25  13 CALM      29.92F
*FREDERICKSBRG SUNNY     75  29  18 NW5       29.93F
*ROCKSPRINGS   SUNNY     77  25  14 NW12G20   29.99F
*BOERNE        SUNNY     75  34  22 N6        29.92F
*CASTROVILLE   SUNNY     83  31  15 N9        29.90S
HONDO          SUNNY     85  31  14 VRB5      29.88F
*UVALDE        SUNNY     84  33  16 N6        29.89F
DEL RIO        SUNNY     87  21   9 W7        29.88F
LAUGHLIN AFB   NOT AVBL
SPOFFORD       SUNNY     87  20   8 NE5       29.82F
*EAGLE PASS    SUNNY     88  25  10 NW10      29.89S
CARRIZO SPRGS  SUNNY     86  34  15 N6        29.86F
*FAITH RANCH   SUNNY     88  34  14 N8G16     29.86F
$$

TXZ173-191>194-202-209-217>225-228-212200-
CENTRAL AND SOUTH CENTRAL TEXAS

CITY           SKY/WX    TMP DP  RH WIND       PRES   REMARKS
GEORGETOWN     SUNNY     78  35  21 NE8       29.92F
AUSTIN/BERGSTM MOSUNNY   80  35  19 NE14G20   29.89S
AUSTIN/MABRY   SUNNY     81  31  16 NE8       29.90S
*AUSTIN/EXEC   SUNNY     77  34  20 NE8       29.91S
*LAGO VISTA    SUNNY     75  34  22 NE5       29.92F
SAN MARCOS     SUNNY     81  35  19 N10       29.90S
NEW BRAUNFELS  SUNNY     82  34  17 NE13      29.88R
RANDOLPH AFB   SUNNY     81  36  20 NE8       29.88F
SEGUIN         SUNNY     79  35  20 N14       29.92S
KELLY FIELD    SUNNY     81  36  20 N7        29.87F
SAN ANTONIO    MOSUNNY   81  37  20 NW8       29.89F
STINSON FIELD  SUNNY     81  35  19 NE7       29.86F
PLEASANTON     SUNNY     82  38  20 NE8       29.88S
*LA GRANGE     SUNNY     81  42  24 N7        29.85S
*GIDDINGS      SUNNY     81  38  21 N7        29.89R
*GONZALES      SUNNY     82  42  24 NE5       29.87S
$$

TXZ163>164-176>182-195>201-210>213-226-227-235-212200-
SOUTHEAST TEXAS

CITY           SKY/WX    TMP DP  RH WIND       PRES   REMARKS
COLLEGE STN    SUNNY     81  37  20 N10       29.87S
*BRYAN         SUNNY     79  41  25 NW6       29.90R
*CALDWELL      SUNNY     78  37  23 N10       29.89R
*CROCKETT      SUNNY     77  41  27 W6        29.89S
*BRENHAM       SUNNY     80  40  24 N10       29.87S
HUNTSVILLE     SUNNY     79  42  26 N9        29.87R
CONROE         SUNNY     79  56  45 NW9       29.85R
HOUSTON BUSH   MOSUNNY   79  58  48 N9        29.82S
HOUSTON HOBBY  FAIR      79  60  52 N7        29.82S
*HOUSTON SW AP FAIR      78  63  59 N6        29.83S
PEARLAND       FAIR      79  62  56 N7        29.83S
HOUSTON HOOKS  FAIR      79  57  46 N8        29.83S
ELLINGTON FLD  MOSUNNY   75  61  60 N7        29.80F
SUGAR LAND     FAIR      81  59  47 N10       29.82S
*HOUSTON EXEC  FAIR      81  54  39 N10       29.85S
*CLEVELAND MUN FAIR      77  63  61 N9        29.84S
*WHARTON       SUNNY     79  54  41 N9        29.84F
*COLUMBUS      FAIR      81  35  19 N10       29.86R
*EAGLE LAKE    SUNNY     83  47  28 N13G18    29.84S
$$

TXZ214>216-236>238-212200-
THE UPPER TEXAS COAST

CITY           SKY/WX    TMP DP  RH WIND       PRES   REMARKS
*ORANGE        PTSUNNY   73  68  83 N6        29.83S
PORT ARTHUR    FAIR      75  64  68 N13       29.80S
GALVESTON      FAIR      75  67  76 N13       29.81S
ANGLETON       FAIR      77  64  64 N12       29.81S
*BAY CITY      SUNNY     81  64  56 N7        29.82R
PALACIOS       SUNNY     82  60  47 N12       29.82
$$

TXZ229>234-239>247-212200-
TEXAS COASTAL BEND AND RIO GRANDE PLAINS

CITY           SKY/WX    TMP DP  RH WIND       PRES   REMARKS
VICTORIA       SUNNY     83  55  38 NE9       29.84R
*BEEVILLE      SUNNY     89  41  19 N14       29.84S
ROCKPORT       SUNNY     85  60  42 N13       29.81S
*PORT ARANSAS  SUNNY     80  62  53 NE15      29.83S
*PORT LAVACA   SUNNY     83  59  43 NE14      29.83S
*INGLESIDE     SUNNY     84  66  54 NE12      29.81S
CORPUS CHRISTI MOSUNNY   87  60  40 NE13      29.81S
CORPUS NAS     MOSUNNY   81  68  64 NE13      29.81F
*ROBSTOWN      SUNNY     85  56  36 NE10G16   29.82S
ALICE          SUNNY     90  54  29 N13G20    29.81F
KINGSVILLE NAS NOT AVBL
COTULLA        SUNNY     88  33  14 N10       29.86F
LAREDO         SUNNY     89  55  31 N13       29.83F
$$

TXZ248>255-212200-
DEEP SOUTH TEXAS

CITY           SKY/WX    TMP DP  RH WIND       PRES   REMARKS
BROWNSVILLE    FAIR      90  75  61 VRB3      29.74F HX 100
PORT ISABEL    CLOUDY    82  75  79 N20G26    29.76S
HARLINGEN      PTSUNNY   83  73  72 NE21      29.77R
*HEBBRONVILLE  SUNNY     88  57  35 CALM      29.83S
MCALLEN        PTSUNNY   91  73  55 N17G26    29.77S HX  99
*WESLACO       MOSUNNY   89  73  58 NE17G23   29.76S HX  96
FALFURRIAS     SUNNY     89  60  37 N8        29.80S
EDINBURG       FAIR      85  69  56 NE13G21   29.79R
*ZAPATA        NOT AVBL
$$

TXZ213>215-236>238-242>244-246-247-251-254-255-212200-
CMAN STATIONS

STATION/POSITION TIME  TEMP    WIND        PRES    WAVE
                       AIR SEA DIR/SP/G            HT/PER
                 (UTC) (F)     (DEG/KT/KT) (MB)    (FT/S)
SABINE PASS      2024   70 78   10/  6/  8 1010.9
SEA RIM ST PARK  2000   69     350/  6/  8 1009.1
NORTH JETTY/GLS  2024   71 77   20/ 11/ 12 1008.0
EAGLE POINT      2024   72 76  360/  8/ 12 1009.0
MORGANS POINT    2024   73 78   10/ 10/ 13 1009.8
PORT O`CONNOR    2024   75 81   40/  9/ 11 1009.2
PORT ARANSAS     2000   76 79  360/ 15/ 17 1010.0
MALAQUITE BEACH  2024   79 81   20/ 17/ 20 1009.3
BAFFIN BAY       2024   78 81   10/ 13/ 19 1009.6
PORT ISABEL      2024   88 81  280/  4/  7 1007.6
$$




USA.gov is the U.S. government's official web portal to all federal, state and local government web resources and services.